| time (UTC) | temp C | wind direction | speed KPH | gust KPH | rain 1hr cm | rain 24hr cm | rain mn cm | humidity % | barometer mb |
| 20260906092820 | 21 | 157 | 0.0 | 0.0 | 0.00 | 0.00 | 0.00 | 97 | 1010.2 |
| 20260906092319 | 21 | 157 | 0.0 | 0.0 | 0.00 | 0.00 | 0.00 | 97 | 1010.2 |
| 20260906091815 | 21 | 157 | 0.0 | 0.0 | 0.00 | 0.00 | 0.00 | 97 | 1010.1 |
| 20260906091311 | 21 | 157 | 0.0 | 0.0 | 0.00 | 0.00 | 0.00 | 97 | 1010.1 |
| 20260906090808 | 21 | 157 | 0.0 | 0.0 | 0.00 | 0.00 | 0.00 | 97 | 1010.3 |
| 20260906090306 | 21 | 157 | 0.0 | 0.0 | 0.00 | 0.00 | 0.00 | 97 | 1010.2 |
| 20260906085807 | 21 | 157 | 0.0 | 0.0 | 0.00 | 0.00 | 0.00 | 97 | 1010.0 |
| 20260906085307 | 21 | 157 | 0.0 | 0.0 | 0.00 | 0.00 | 0.00 | 97 | 1010.0 |
| 20260906084800 | 21 | 158 | 0.0 | 0.0 | 0.00 | 0.00 | 0.00 | 97 | 1010.2 |
| 20260906084300 | 21 | 158 | 0.0 | 0.0 | 0.00 | 0.00 | 0.00 | 97 | 1010.4 |
| 20260906083755 | 21 | 157 | 0.0 | 1.6 | 0.00 | 0.00 | 0.00 | 97 | 1010.2 |
| 20260906083250 | 21 | 157 | 0.0 | 0.0 | 0.00 | 0.00 | 0.00 | 97 | 1010.2 |
| 20260906082745 | 21 | 157 | 0.0 | 0.0 | 0.00 | 0.00 | 0.00 | 97 | 1010.2 |
| 20260906082240 | 21 | 157 | 0.0 | 0.0 | 0.00 | 0.00 | 0.00 | 97 | 1009.9 |
| 20260906081736 | 21 | 158 | 0.0 | 1.6 | 0.00 | 0.00 | 0.00 | 97 | 1010.2 |
| 20260906081231 | 21 | 158 | 0.0 | 0.0 | 0.00 | 0.00 | 0.00 | 97 | 1010.0 |
| 20260906080728 | 21 | 158 | 0.0 | 0.0 | 0.00 | 0.00 | 0.00 | 97 | 1010.0 |
| 20260906080224 | 21 | 158 | 0.0 | 0.0 | 0.00 | 0.00 | 0.00 | 97 | 1010.0 |
| 20260906075724 | 21 | 158 | 0.0 | 0.0 | 0.00 | 0.00 | 0.00 | 96 | 1009.9 |
| 20260906075223 | 21 | 158 | 0.0 | 0.0 | 0.00 | 0.00 | 0.00 | 96 | 1010.0 |
| 20260906074719 | 21 | 158 | 0.0 | 0.0 | 0.00 | 0.00 | 0.00 | 96 | 1009.7 |
| 20260906074213 | 21 | 158 | 0.0 | 0.0 | 0.00 | 0.00 | 0.00 | 96 | 1009.8 |
| 20260906073713 | 21 | 158 | 1.6 | 1.6 | 0.00 | 0.00 | 0.00 | 96 | 1009.8 |
| 20260906073208 | 21 | 158 | 0.0 | 1.6 | 0.00 | 0.00 | 0.00 | 96 | 1009.9 |
| 20260906072704 | 21 | 157 | 0.0 | 0.0 | 0.00 | 0.00 | 0.00 | 96 | 1009.8 |
| 20260906072159 | 21 | 157 | 0.0 | 0.0 | 0.00 | 0.00 | 0.00 | 96 | 1010.0 |
| 20260906071655 | 21 | 157 | 0.0 | 0.0 | 0.00 | 0.00 | 0.00 | 96 | 1009.9 |
| 20260906071154 | 21 | 157 | 0.0 | 0.0 | 0.00 | 0.00 | 0.00 | 96 | 1010.0 |
| 20260906070652 | 21 | 157 | 0.0 | 0.0 | 0.00 | 0.00 | 0.00 | 96 | 1010.0 |
| 20260906070147 | 21 | 157 | 0.0 | 0.0 | 0.00 | 0.00 | 0.00 | 96 | 1010.1 |
| 20260906065646 | 21 | 157 | 0.0 | 0.0 | 0.00 | 0.00 | 0.00 | 96 | 1010.0 |
| 20260906065142 | 22 | 157 | 0.0 | 0.0 | 0.00 | 0.00 | 0.00 | 96 | 1010.1 |
| 20260906064637 | 22 | 157 | 0.0 | 0.0 | 0.00 | 0.00 | 0.00 | 96 | 1010.0 |
| 20260906064132 | 22 | 157 | 0.0 | 0.0 | 0.00 | 0.00 | 0.00 | 96 | 1009.9 |
| 20260906063628 | 22 | 158 | 0.0 | 0.0 | 0.00 | 0.00 | 0.00 | 96 | 1010.0 |
| 20260906063123 | 22 | 158 | 0.0 | 0.0 | 0.00 | 0.00 | 0.00 | 96 | 1009.9 |
| 20260906062619 | 22 | 158 | 0.0 | 1.6 | 0.00 | 0.00 | 0.00 | 96 | 1010.0 |
| 20260906062118 | 22 | 158 | 1.6 | 1.6 | 0.00 | 0.00 | 0.00 | 96 | 1010.2 |
| 20260906061614 | 22 | 152 | 1.6 | 1.6 | 0.00 | 0.00 | 0.00 | 96 | 1010.3 |
| 20260906061114 | 21 | 151 | 1.6 | 1.6 | 0.00 | 0.00 | 0.00 | 96 | 1010.4 |
| 20260906060611 | 22 | 144 | 1.6 | 1.6 | 0.00 | 0.00 | 0.00 | 96 | 1010.5 |
| 20260906060108 | 22 | 144 | 0.0 | 0.0 | 0.00 | 0.00 | 0.00 | 96 | 1010.7 |
| 20260906055603 | 22 | 144 | 0.0 | 0.0 | 0.00 | 0.00 | 0.00 | 96 | 1010.7 |
| 20260906055058 | 22 | 144 | 0.0 | 1.6 | 0.00 | 0.00 | 0.00 | 96 | 1010.9 |
| 20260906054558 | 22 | 144 | 0.0 | 1.6 | 0.00 | 0.00 | 0.00 | 96 | 1010.9 |
| 20260906054053 | 22 | 144 | 0.0 | 0.0 | 0.00 | 0.00 | 0.00 | 96 | 1011.0 |
| 20260906053550 | 22 | 144 | 0.0 | 0.0 | 0.00 | 0.00 | 0.00 | 96 | 1010.8 |
| 20260906053045 | 22 | 144 | 0.0 | 1.6 | 0.00 | 0.00 | 0.00 | 96 | 1010.9 |
| 20260906052540 | 22 | 144 | 0.0 | 1.6 | 0.00 | 0.00 | 0.00 | 96 | 1010.8 |
| 20260906052037 | 22 | 144 | 0.0 | 0.0 | 0.00 | 0.00 | 0.00 | 95 | 1010.9 |
| 20260906051533 | 22 | 144 | 0.0 | 0.0 | 0.00 | 0.00 | 0.00 | 95 | 1010.9 |
| 20260906051028 | 22 | 143 | 0.0 | 1.6 | 0.00 | 0.00 | 0.00 | 95 | 1010.8 |
| 20260906050523 | 22 | 144 | 0.0 | 0.0 | 0.00 | 0.00 | 0.00 | 95 | 1011.1 |
| 20260906050018 | 22 | 144 | 0.0 | 0.0 | 0.00 | 0.00 | 0.00 | 95 | 1011.3 |
| 20260906045516 | 22 | 144 | 0.0 | 0.0 | 0.00 | 0.00 | 0.00 | 95 | 1011.1 |
| 20260906045012 | 22 | 144 | 0.0 | 1.6 | 0.00 | 0.00 | 0.00 | 95 | 1011.2 |
| 20260906044507 | 22 | 143 | 0.0 | 0.0 | 0.00 | 0.00 | 0.00 | 95 | 1011.3 |
| 20260906044003 | 22 | 143 | 0.0 | 1.6 | 0.00 | 0.00 | 0.00 | 95 | 1011.2 |
| 20260906043458 | 22 | 159 | 0.0 | 1.6 | 0.00 | 0.00 | 0.00 | 95 | 1011.1 |
| 20260906042954 | 22 | 159 | 0.0 | 0.0 | 0.00 | 0.00 | 0.00 | 95 | 1011.1 |
| 20260906042453 | 22 | 159 | 0.0 | 1.6 | 0.00 | 0.00 | 0.00 | 95 | 1010.9 |
| 20260906041953 | 22 | 166 | 1.6 | 1.6 | 0.00 | 0.00 | 0.00 | 94 | 1010.9 |
| 20260906041450 | 22 | 155 | 1.6 | 1.6 | 0.00 | 0.00 | 0.00 | 94 | 1010.9 |
| 20260906040949 | 22 | 116 | 0.0 | 0.0 | 0.00 | 0.00 | 0.00 | 94 | 1011.1 |
| 20260906040444 | 22 | 115 | 0.0 | 0.0 | 0.00 | 0.00 | 0.00 | 94 | 1011.0 |
| 20260906035939 | 22 | 117 | 0.0 | 1.6 | 0.00 | 0.05 | 0.05 | 93 | 1011.2 |
| 20260906035435 | 22 | 117 | 0.0 | 0.0 | 0.00 | 0.05 | 0.05 | 93 | 1011.1 |
| 20260906034931 | 22 | 118 | 0.0 | 0.0 | 0.00 | 0.05 | 0.05 | 93 | 1010.9 |
| 20260906034431 | 23 | 117 | 1.6 | 1.6 | 0.00 | 0.05 | 0.05 | 93 | 1011.3 |
| 20260906033927 | 23 | 166 | 0.0 | 1.6 | 0.00 | 0.05 | 0.05 | 93 | 1011.1 |
| 20260906033426 | 23 | 166 | 0.0 | 0.0 | 0.00 | 0.05 | 0.05 | 93 | 1011.2 |
| 20260906032922 | 23 | 166 | 0.0 | 1.6 | 0.00 | 0.05 | 0.05 | 92 | 1011.3 |
| 20260906032419 | 23 | 166 | 1.6 | 3.2 | 0.00 | 0.05 | 0.05 | 92 | 1011.3 |
| 20260906031919 | 23 | 166 | 1.6 | 1.6 | 0.00 | 0.05 | 0.05 | 92 | 1011.3 |
| 20260906031414 | 23 | 165 | 0.0 | 1.6 | 0.00 | 0.05 | 0.05 | 92 | 1011.4 |
| 20260906030909 | 23 | 166 | 0.0 | 0.0 | 0.00 | 0.05 | 0.05 | 92 | 1011.4 |
| 20260906030404 | 23 | 166 | 1.6 | 1.6 | 0.00 | 0.05 | 0.05 | 91 | 1011.5 |
| 20260906025859 | 23 | 166 | 0.0 | 0.0 | 0.00 | 0.05 | 0.05 | 91 | 1011.5 |
| 20260906025359 | 23 | 165 | 0.0 | 1.6 | 0.00 | 0.05 | 0.05 | 91 | 1011.2 |
| 20260906024857 | 23 | 185 | 3.2 | 4.8 | 0.00 | 0.05 | 0.05 | 90 | 1011.2 |
| 20260906024357 | 23 | 162 | 4.8 | 6.4 | 0.00 | 0.05 | 0.05 | 89 | 1011.2 |
| 20260906023852 | 23 | 190 | 3.2 | 3.2 | 0.00 | 0.05 | 0.05 | 89 | 1010.8 |
| 20260906023349 | 23 | 192 | 0.0 | 0.0 | 0.00 | 0.05 | 0.05 | 88 | 1011.0 |
| 20260906022848 | 23 | 207 | 1.6 | 3.2 | 0.00 | 0.05 | 0.05 | 89 | 1010.8 |
| 20260906022344 | 23 | 167 | 1.6 | 1.6 | 0.00 | 0.05 | 0.05 | 88 | 1010.7 |
| 20260906021839 | 23 | 164 | 0.0 | 0.0 | 0.00 | 0.05 | 0.05 | 88 | 1010.9 |
| 20260906021338 | 23 | 107 | 0.0 | 0.0 | 0.00 | 0.05 | 0.05 | 87 | 1011.0 |
| 20260906020834 | 23 | 107 | 0.0 | 1.6 | 0.00 | 0.05 | 0.05 | 86 | 1010.9 |
| 20260906020333 | 24 | 107 | 0.0 | 1.6 | 0.00 | 0.05 | 0.05 | 86 | 1011.0 |
| 20260906015828 | 24 | 174 | 1.6 | 1.6 | 0.00 | 0.05 | 0.05 | 85 | 1011.1 |
| 20260906015327 | 24 | 188 | 0.0 | 1.6 | 0.00 | 0.05 | 0.05 | 85 | 1011.1 |
| 20260906014826 | 25 | 178 | 1.6 | 3.2 | 0.00 | 0.05 | 0.05 | 84 | 1011.3 |
| 20260906014322 | 25 | 209 | 3.2 | 3.2 | 0.00 | 0.05 | 0.05 | 83 | 1011.1 |
| 20260906013818 | 25 | 226 | 3.2 | 9.7 | 0.00 | 0.05 | 0.05 | 83 | 1011.0 |
| 20260906013313 | 25 | 204 | 3.2 | 3.2 | 0.00 | 0.05 | 0.05 | 82 | 1011.0 |
| 20260906012808 | 25 | 213 | 1.6 | 3.2 | 0.00 | 0.05 | 0.05 | 81 | 1011.0 |
| 20260906012306 | 25 | 196 | 1.6 | 3.2 | 0.00 | 0.05 | 0.05 | 81 | 1011.1 |
| 20260906011758 | 24 | 191 | 1.6 | 4.8 | 0.00 | 0.05 | 0.05 | 81 | 1011.0 |
| 20260906011258 | 24 | 178 | 1.6 | 3.2 | 0.00 | 0.05 | 0.05 | 82 | 1011.1 |
| 20260906010754 | 24 | 172 | 1.6 | 1.6 | 0.00 | 0.05 | 0.05 | 81 | 1010.9 |
| 20260906010250 | 25 | 165 | 1.6 | 3.2 | 0.00 | 0.05 | 0.05 | 80 | 1010.8 |
| 20260906005745 | 25 | 151 | 1.6 | 3.2 | 0.00 | 0.05 | 0.05 | 80 | 1010.5 |
| 20260906005244 | 25 | 117 | 0.0 | 1.6 | 0.00 | 0.05 | 0.05 | 79 | 1010.6 |
| 20260906004743 | 25 | 116 | 0.0 | 0.0 | 0.00 | 0.05 | 0.05 | 78 | 1010.7 |
| 20260906004239 | 25 | 115 | 0.0 | 1.6 | 0.00 | 0.05 | 0.05 | 77 | 1010.4 |
| 20260906003739 | 25 | 128 | 0.0 | 1.6 | 0.00 | 0.05 | 0.05 | 78 | 1010.1 |
| 20260906003234 | 25 | 184 | 0.0 | 0.0 | 0.00 | 0.05 | 0.05 | 77 | 1010.2 |
| 20260906002735 | 25 | 184 | 0.0 | 0.0 | 0.00 | 0.05 | 0.05 | 76 | 1010.0 |
| 20260906002235 | 25 | 184 | 0.0 | 0.0 | 0.00 | 0.05 | 0.05 | 76 | 1009.6 |
| 20260906001730 | 25 | 184 | 0.0 | 1.6 | 0.00 | 0.05 | 0.05 | 76 | 1009.5 |
| 20260906001225 | 26 | 184 | 1.6 | 1.6 | 0.00 | 0.05 | 0.05 | 76 | 1009.7 |
| 20260906000721 | 26 | 185 | 0.0 | 1.6 | 0.00 | 0.05 | 0.05 | 75 | 1009.7 |
| 20260906000215 | 26 | 184 | 0.0 | 0.0 | 0.00 | 0.05 | 0.05 | 75 | 1010.0 |
| 20260905235715 | 26 | 185 | 1.6 | 1.6 | 0.00 | 0.05 | 0.05 | 74 | 1009.9 |
| 20260905235210 | 26 | 184 | 0.0 | 0.0 | 0.00 | 0.05 | 0.05 | 72 | 1010.1 |
| 20260905234705 | 27 | 184 | 0.0 | 0.0 | 0.00 | 0.05 | 0.05 | 72 | 1010.1 |
| 20260905234201 | 27 | 185 | 0.0 | 0.0 | 0.00 | 0.05 | 0.05 | 71 | 1009.9 |
| 20260905233656 | 27 | 128 | 0.0 | 0.0 | 0.00 | 0.05 | 0.05 | 71 | 1010.0 |
| 20260905233155 | 27 | 9 | 0.0 | 3.2 | 0.00 | 0.05 | 0.05 | 70 | 1010.3 |
| 20260905232651 | 28 | 120 | 1.6 | 1.6 | 0.00 | 0.05 | 0.05 | 67 | 1010.4 |
| 20260905232146 | 28 | 193 | 0.0 | 1.6 | 0.00 | 0.05 | 0.05 | 67 | 1010.1 |
| 20260905231641 | 28 | 192 | 0.0 | 1.6 | 0.00 | 0.05 | 0.05 | 65 | 1010.3 |
| 20260905231137 | 29 | 226 | 3.2 | 4.8 | 0.00 | 0.05 | 0.05 | 63 | 1010.4 |
| 20260905230633 | 30 | 218 | 4.8 | 4.8 | 0.00 | 0.05 | 0.05 | 60 | 1010.2 |
| 20260905230131 | 30 | 169 | 0.0 | 1.6 | 0.00 | 0.05 | 0.05 | 59 | 1010.0 |
| 20260905225631 | 30 | 121 | 0.0 | 1.6 | 0.00 | 0.05 | 0.05 | 60 | 1009.9 |
| 20260905225126 | 30 | 135 | 0.0 | 1.6 | 0.00 | 0.05 | 0.05 | 61 | 1010.2 |
| 20260905224625 | 29 | 162 | 0.0 | 1.6 | 0.00 | 0.05 | 0.05 | 62 | 1009.8 |
| 20260905224125 | 28 | 189 | 1.6 | 3.2 | 0.00 | 0.05 | 0.05 | 64 | 1010.0 |
| 20260905223622 | 28 | 137 | 0.0 | 1.6 | 0.00 | 0.05 | 0.05 | 66 | 1010.1 |
| 20260905223118 | 27 | 213 | 1.6 | 3.2 | 0.00 | 0.05 | 0.05 | 67 | 1009.8 |
| 20260905222619 | 27 | 70 | 4.8 | 4.8 | 0.00 | 0.05 | 0.05 | 66 | 1009.7 |
| 20260905222114 | 28 | 122 | 1.6 | 3.2 | 0.00 | 0.05 | 0.05 | 66 | 1010.0 |
| 20260905221609 | 28 | 104 | 1.6 | 4.8 | 0.00 | 0.05 | 0.05 | 65 | 1010.3 |
| 20260905221106 | 28 | 120 | 0.0 | 3.2 | 0.00 | 0.05 | 0.05 | 65 | 1010.1 |
| 20260905220600 | 28 | 86 | 1.6 | 3.2 | 0.00 | 0.05 | 0.05 | 65 | 1010.2 |
| 20260905220057 | 28 | 73 | 6.4 | 11.3 | 0.00 | 0.05 | 0.05 | 64 | 1010.3 |
| 20260905215556 | 28 | 84 | 3.2 | 11.3 | 0.00 | 0.05 | 0.05 | 62 | 1010.4 |
| 20260905215052 | 29 | 68 | 3.2 | 9.7 | 0.00 | 0.05 | 0.05 | 62 | 1010.1 |
| 20260905214548 | 30 | 1 | 4.8 | 4.8 | 0.00 | 0.05 | 0.05 | 60 | 1009.9 |
| 20260905214043 | 30 | 124 | 0.0 | 3.2 | 0.00 | 0.05 | 0.05 | 61 | 1009.8 |
| 20260905213538 | 30 | 100 | 1.6 | 4.8 | 0.00 | 0.05 | 0.05 | 61 | 1009.8 |
| 20260905213033 | 30 | 100 | 1.6 | 3.2 | 0.00 | 0.05 | 0.05 | 59 | 1009.8 |
| 20260905212528 | 30 | 220 | 0.0 | 1.6 | 0.00 | 0.05 | 0.05 | 57 | 1009.8 |
| 20260905212027 | 30 | 188 | 0.0 | 1.6 | 0.00 | 0.05 | 0.05 | 59 | 1010.1 |
| 20260905211523 | 30 | 183 | 1.6 | 1.6 | 0.00 | 0.05 | 0.05 | 59 | 1010.3 |
| 20260905211019 | 30 | 161 | 0.0 | 3.2 | 0.00 | 0.05 | 0.05 | 59 | 1010.1 |
| 20260905210514 | 30 | 162 | 1.6 | 4.8 | 0.00 | 0.05 | 0.05 | 58 | 1010.2 |
| 20260905210014 | 30 | 179 | 3.2 | 9.7 | 0.00 | 0.05 | 0.05 | 57 | 1010.3 |
| 20260905205514 | 30 | 186 | 0.0 | 1.6 | 0.00 | 0.05 | 0.05 | 58 | 1010.4 |
| 20260905205013 | 29 | 158 | 1.6 | 4.8 | 0.00 | 0.05 | 0.05 | 59 | 1010.7 |
| 20260905204509 | 28 | 111 | 4.8 | 6.4 | 0.00 | 0.05 | 0.05 | 63 | 1010.9 |
| 20260905204008 | 28 | 174 | 4.8 | 6.4 | 0.00 | 0.05 | 0.05 | 65 | 1011.1 |
| 20260905203503 | 29 | 161 | 6.4 | 6.4 | 0.00 | 0.05 | 0.05 | 65 | 1010.7 |
| 20260905202959 | 27 | 176 | 0.0 | 1.6 | 0.00 | 0.05 | 0.05 | 68 | 1010.7 |
| 20260905202454 | 26 | 43 | 1.6 | 1.6 | 0.00 | 0.05 | 0.05 | 71 | 1010.9 |
| 20260905201949 | 26 | 158 | 1.6 | 4.8 | 0.00 | 0.05 | 0.05 | 75 | 1011.2 |
| 20260905201444 | 26 | 224 | 3.2 | 6.4 | 0.00 | 0.05 | 0.05 | 75 | 1011.6 |
| 20260905200944 | 27 | 182 | 3.2 | 4.8 | 0.00 | 0.05 | 0.05 | 71 | 1011.4 |
| 20260905200440 | 27 | 96 | 3.2 | 4.8 | 0.18 | 0.05 | 0.05 | 66 | 1011.1 |
| 20260905195938 | 28 | 72 | 4.8 | 9.7 | 0.30 | 0.05 | 0.05 | 65 | 1011.1 |
| 20260905195433 | 29 | 131 | 3.2 | 6.4 | 0.00 | 0.00 | 0.00 | 58 | 1010.8 |
| 20260905194929 | 30 | 56 | 11.3 | 17.7 | 0.00 | 0.00 | 0.00 | 55 | 1010.6 |
| 20260905194429 | 30 | 83 | 3.2 | 14.5 | 0.00 | 0.00 | 0.00 | 53 | 1010.9 |
| 20260905193928 | 31 | 40 | 9.7 | 14.5 | 0.00 | 0.00 | 0.00 | 50 | 1011.1 |
| 20260905193423 | 32 | 74 | 14.5 | 24.1 | 0.00 | 0.00 | 0.00 | 48 | 1010.7 |
| 20260905192919 | 33 | 57 | 6.4 | 24.1 | 0.00 | 0.00 | 0.00 | 46 | 1010.3 |
| 20260905192414 | 35 | 93 | 1.6 | 4.8 | 0.00 | 0.00 | 0.00 | 43 | 1009.9 |
| 20260905191914 | 35 | 114 | 0.0 | 1.6 | 0.00 | 0.00 | 0.00 | 42 | 1009.9 |
| 20260905191413 | 35 | 350 | 1.6 | 3.2 | 0.00 | 0.00 | 0.00 | 41 | 1009.9 |
| 20260905190909 | 35 | 129 | 1.6 | 1.6 | 0.00 | 0.00 | 0.00 | 41 | 1010.1 |
| 20260905190406 | 36 | 115 | 1.6 | 4.8 | 0.00 | 0.00 | 0.00 | 39 | 1010.0 |
| 20260905185905 | 37 | 216 | 1.6 | 4.8 | 0.00 | 0.00 | 0.00 | 37 | 1009.9 |
| 20260905185400 | 37 | 53 | 3.2 | 4.8 | 0.00 | 0.00 | 0.00 | 37 | 1009.9 |
| 20260905184859 | 36 | 136 | 3.2 | 4.8 | 0.00 | 0.00 | 0.00 | 38 | 1009.9 |
| 20260905184359 | 36 | 7 | 3.2 | 4.8 | 0.00 | 0.00 | 0.00 | 38 | 1010.0 |
| 20260905183857 | 36 | 107 | 4.8 | 4.8 | 0.00 | 0.00 | 0.00 | 39 | 1009.8 |
| 20260905183352 | 35 | 140 | 0.0 | 4.8 | 0.00 | 0.00 | 0.00 | 40 | 1009.9 |
| 20260905182848 | 36 | 157 | 0.0 | 3.2 | 0.00 | 0.00 | 0.00 | 39 | 1010.3 |
| 20260905182347 | 36 | 169 | 4.8 | 12.9 | 0.00 | 0.00 | 0.00 | 38 | 1010.0 |
| 20260905181843 | 36 | 143 | 4.8 | 9.7 | 0.00 | 0.00 | 0.00 | 40 | 1010.2 |
| 20260905181342 | 36 | 127 | 8.0 | 12.9 | 0.00 | 0.00 | 0.00 | 38 | 1010.2 |
| 20260905180842 | 37 | 140 | 4.8 | 9.7 | 0.00 | 0.00 | 0.00 | 38 | 1010.1 |
| 20260905180337 | 36 | 149 | 0.0 | 6.4 | 0.00 | 0.00 | 0.00 | 39 | 1010.4 |
| 20260905175832 | 36 | 108 | 6.4 | 12.9 | 0.00 | 0.00 | 0.00 | 39 | 1010.5 |
| 20260905175331 | 36 | 134 | 6.4 | 11.3 | 0.00 | 0.00 | 0.00 | 39 | 1010.6 |
| 20260905174827 | 36 | 137 | 1.6 | 6.4 | 0.00 | 0.00 | 0.00 | 39 | 1010.5 |
| 20260905174323 | 36 | 173 | 1.6 | 9.7 | 0.00 | 0.00 | 0.00 | 39 | 1010.7 |
| 20260905173818 | 36 | 137 | 4.8 | 11.3 | 0.00 | 0.00 | 0.00 | 39 | 1010.7 |
| 20260905173314 | 36 | 312 | 0.0 | 4.8 | 0.00 | 0.00 | 0.00 | 39 | 1010.8 |
| 20260905172814 | 36 | 20 | 4.8 | 9.7 | 0.00 | 0.00 | 0.00 | 38 | 1011.0 |
| 20260905172312 | 36 | 257 | 3.2 | 11.3 | 0.00 | 0.00 | 0.00 | 39 | 1010.8 |
| 20260905171809 | 36 | 223 | 3.2 | 11.3 | 0.00 | 0.00 | 0.00 | 38 | 1010.7 |
| 20260905171305 | 36 | 231 | 3.2 | 6.4 | 0.00 | 0.00 | 0.00 | 40 | 1010.9 |
| 20260905170801 | 36 | 69 | 1.6 | 6.4 | 0.00 | 0.00 | 0.00 | 41 | 1010.8 |
| 20260905170256 | 36 | 131 | 6.4 | 9.7 | 0.00 | 0.00 | 0.00 | 40 | 1010.9 |
| 20260905165755 | 36 | 175 | 4.8 | 9.7 | 0.00 | 0.00 | 0.00 | 40 | 1011.1 |
| 20260905165252 | 36 | 153 | 1.6 | 4.8 | 0.00 | 0.00 | 0.00 | 40 | 1011.2 |
| 20260905164746 | 35 | 129 | 0.0 | 6.4 | 0.00 | 0.00 | 0.00 | 43 | 1011.2 |
| 20260905164246 | 36 | 135 | 3.2 | 4.8 | 0.00 | 0.00 | 0.00 | 42 | 1011.6 |
| 20260905163742 | 36 | 310 | 1.6 | 11.3 | 0.00 | 0.00 | 0.00 | 41 | 1011.7 |
| 20260905163238 | 36 | 64 | 3.2 | 3.2 | 0.00 | 0.00 | 0.00 | 42 | 1011.6 |
| 20260905162734 | 35 | 118 | 0.0 | 1.6 | 0.00 | 0.00 | 0.00 | 43 | 1011.9 |
| 20260905162233 | 35 | 122 | 0.0 | 4.8 | 0.00 | 0.00 | 0.00 | 44 | 1011.9 |
| 20260905161728 | 35 | 111 | 4.8 | 6.4 | 0.00 | 0.00 | 0.00 | 45 | 1011.8 |
| 20260905161227 | 34 | 91 | 3.2 | 4.8 | 0.00 | 0.00 | 0.00 | 47 | 1011.8 |
| 20260905160725 | 34 | 126 | 6.4 | 6.4 | 0.00 | 0.00 | 0.00 | 47 | 1012.0 |
| 20260905160220 | 34 | 158 | 3.2 | 4.8 | 0.00 | 0.00 | 0.00 | 49 | 1012.0 |
| 20260905155720 | 33 | 131 | 4.8 | 9.7 | 0.00 | 0.00 | 0.00 | 50 | 1012.2 |
| 20260905155219 | 35 | 159 | 3.2 | 4.8 | 0.00 | 0.00 | 0.00 | 49 | 1012.2 |
| 20260905154713 | 35 | 116 | 1.6 | 4.8 | 0.00 | 0.00 | 0.00 | 47 | 1012.3 |
| 20260905154209 | 34 | 273 | 3.2 | 6.4 | 0.00 | 0.00 | 0.00 | 49 | 1012.4 |
| 20260905153705 | 34 | 193 | 3.2 | 3.2 | 0.00 | 0.00 | 0.00 | 50 | 1012.4 |
| 20260905153200 | 33 | 120 | 1.6 | 4.8 | 0.00 | 0.00 | 0.00 | 52 | 1012.4 |
| 20260905152654 | 34 | 292 | 8.0 | 9.7 | 0.00 | 0.00 | 0.00 | 50 | 1012.7 |
| 20260905152149 | 33 | 143 | 1.6 | 3.2 | 0.00 | 0.00 | 0.00 | 53 | 1012.7 |
| 20260905151644 | 33 | 356 | 3.2 | 6.4 | 0.00 | 0.00 | 0.00 | 53 | 1012.7 |
| 20260905151140 | 33 | 203 | 3.2 | 6.4 | 0.00 | 0.00 | 0.00 | 54 | 1012.2 |
| 20260905150635 | 33 | 173 | 3.2 | 6.4 | 0.00 | 0.00 | 0.00 | 55 | 1012.6 |
| 20260905150133 | 33 | 312 | 3.2 | 4.8 | 0.00 | 0.00 | 0.00 | 53 | 1012.4 |
| 20260905145631 | 33 | 140 | 1.6 | 4.8 | 0.00 | 0.00 | 0.00 | 55 | 1012.7 |
| 20260905145131 | 32 | 171 | 0.0 | 3.2 | 0.00 | 0.00 | 0.00 | 55 | 1012.7 |
| 20260905144626 | 32 | 190 | 3.2 | 4.8 | 0.00 | 0.00 | 0.00 | 58 | 1012.7 |
| 20260905144125 | 32 | 324 | 1.6 | 6.4 | 0.00 | 0.00 | 0.00 | 58 | 1012.7 |
| 20260905143620 | 32 | 175 | 3.2 | 3.2 | 0.00 | 0.00 | 0.00 | 59 | 1012.7 |
| 20260905143115 | 32 | 248 | 3.2 | 4.8 | 0.00 | 0.00 | 0.00 | 59 | 1012.6 |
| 20260905142614 | 31 | 176 | 1.6 | 3.2 | 0.00 | 0.00 | 0.00 | 61 | 1012.8 |
| 20260905142113 | 31 | 207 | 1.6 | 3.2 | 0.00 | 0.00 | 0.00 | 61 | 1012.8 |
| 20260905141613 | 31 | 184 | 1.6 | 1.6 | 0.00 | 0.00 | 0.00 | 62 | 1013.0 |
| 20260905141110 | 30 | 201 | 1.6 | 6.4 | 0.00 | 0.00 | 0.00 | 64 | 1013.1 |
| 20260905140610 | 30 | 158 | 0.0 | 3.2 | 0.00 | 0.00 | 0.00 | 65 | 1013.0 |
| 20260905140109 | 30 | 180 | 1.6 | 3.2 | 0.00 | 0.00 | 0.00 | 66 | 1012.9 |
| 20260905135604 | 30 | 170 | 0.0 | 1.6 | 0.00 | 0.00 | 0.00 | 67 | 1012.9 |
| 20260905135059 | 29 | 178 | 1.6 | 3.2 | 0.00 | 0.00 | 0.00 | 68 | 1013.1 |
| 20260905134554 | 29 | 150 | 0.0 | 4.8 | 0.00 | 0.00 | 0.00 | 67 | 1013.2 |
| 20260905134053 | 29 | 133 | 0.0 | 1.6 | 0.00 | 0.00 | 0.00 | 70 | 1013.3 |
| 20260905133549 | 29 | 126 | 1.6 | 1.6 | 0.00 | 0.00 | 0.00 | 70 | 1013.3 |
| 20260905133048 | 28 | 139 | 0.0 | 1.6 | 0.00 | 0.00 | 0.00 | 71 | 1013.1 |
| 20260905132548 | 28 | 162 | 0.0 | 1.6 | 0.00 | 0.00 | 0.00 | 72 | 1013.1 |
| 20260905132043 | 28 | 116 | 1.6 | 1.6 | 0.00 | 0.00 | 0.00 | 73 | 1013.2 |
| 20260905131538 | 28 | 33 | 1.6 | 3.2 | 0.00 | 0.00 | 0.00 | 73 | 1013.0 |
| 20260905131034 | 28 | 97 | 1.6 | 3.2 | 0.00 | 0.00 | 0.00 | 73 | 1013.0 |
| 20260905130532 | 28 | 114 | 1.6 | 1.6 | 0.00 | 0.00 | 0.00 | 72 | 1013.1 |
| 20260905130028 | 27 | 125 | 0.0 | 1.6 | 0.00 | 0.00 | 0.00 | 73 | 1013.1 |
| 20260905125527 | 27 | 152 | 0.0 | 0.0 | 0.00 | 0.00 | 0.00 | 76 | 1013.0 |
| 20260905125023 | 27 | 210 | 1.6 | 3.2 | 0.00 | 0.00 | 0.00 | 76 | 1013.0 |
| 20260905124519 | 27 | 209 | 1.6 | 3.2 | 0.00 | 0.00 | 0.00 | 75 | 1013.0 |
| 20260905124015 | 26 | 217 | 0.0 | 1.6 | 0.00 | 0.00 | 0.00 | 78 | 1013.0 |
| 20260905123511 | 26 | 217 | 0.0 | 0.0 | 0.00 | 0.00 | 0.00 | 82 | 1012.8 |
| 20260905123008 | 25 | 217 | 0.0 | 0.0 | 0.00 | 0.00 | 0.00 | 86 | 1012.9 |
| 20260905122507 | 25 | 217 | 1.6 | 1.6 | 0.00 | 0.00 | 0.00 | 85 | 1013.1 |
| 20260905122002 | 25 | 198 | 1.6 | 3.2 | 0.00 | 0.00 | 0.00 | 86 | 1013.0 |
| 20260905121457 | 24 | 190 | 0.0 | 1.6 | 0.00 | 0.00 | 0.00 | 89 | 1013.1 |
| 20260905120956 | 23 | 191 | 0.0 | 1.6 | 0.00 | 0.00 | 0.00 | 92 | 1013.0 |
| 20260905120450 | 23 | 191 | 0.0 | 1.6 | 0.00 | 0.00 | 0.00 | 94 | 1012.8 |
| 20260905115946 | 22 | 191 | 0.0 | 0.0 | 0.00 | 0.00 | 0.00 | 95 | 1012.7 |
| 20260905115445 | 22 | 191 | 0.0 | 0.0 | 0.00 | 0.00 | 0.00 | 96 | 1012.8 |
| 20260905114940 | 22 | 191 | 0.0 | 0.0 | 0.00 | 0.00 | 0.00 | 96 | 1012.8 |
| 20260905114440 | 22 | 191 | 0.0 | 0.0 | 0.00 | 0.00 | 0.00 | 96 | 1012.6 |
| 20260905113938 | 22 | 191 | 0.0 | 0.0 | 0.00 | 0.00 | 0.00 | 96 | 1012.4 |
| 20260905113434 | 21 | 191 | 0.0 | 1.6 | 0.00 | 0.00 | 0.00 | 96 | 1012.7 |
| 20260905112929 | 21 | 191 | 0.0 | 1.6 | 0.00 | 0.00 | 0.00 | 96 | 1012.3 |
| 20260905112425 | 21 | 191 | 0.0 | 0.0 | 0.00 | 0.00 | 0.00 | 96 | 1012.2 |
| 20260905111919 | 21 | 191 | 0.0 | 0.0 | 0.00 | 0.00 | 0.00 | 96 | 1012.1 |
| 20260905111414 | 21 | 191 | 0.0 | 0.0 | 0.00 | 0.00 | 0.00 | 96 | 1012.1 |
| 20260905110914 | 21 | 191 | 0.0 | 0.0 | 0.00 | 0.00 | 0.00 | 96 | 1012.0 |
| 20260905110408 | 21 | 191 | 0.0 | 0.0 | 0.00 | 0.00 | 0.00 | 96 | 1011.9 |
| 20260905105903 | 22 | 191 | 0.0 | 0.0 | 0.00 | 0.00 | 0.00 | 96 | 1011.9 |
| 20260905105403 | 22 | 191 | 0.0 | 0.0 | 0.00 | 0.00 | 0.00 | 96 | 1011.8 |
| 20260905104902 | 22 | 191 | 0.0 | 0.0 | 0.00 | 0.00 | 0.00 | 96 | 1011.7 |
| 20260905104359 | 22 | 191 | 0.0 | 0.0 | 0.00 | 0.00 | 0.00 | 96 | 1012.0 |
| 20260905103858 | 22 | 191 | 0.0 | 0.0 | 0.00 | 0.00 | 0.00 | 96 | 1011.8 |
| 20260905103354 | 22 | 191 | 0.0 | 0.0 | 0.00 | 0.00 | 0.00 | 96 | 1011.7 |
| 20260905102849 | 22 | 191 | 0.0 | 0.0 | 0.00 | 0.00 | 0.00 | 96 | 1011.8 |
| 20260905102346 | 22 | 191 | 0.0 | 1.6 | 0.00 | 0.00 | 0.00 | 96 | 1011.7 |
| 20260905101846 | 22 | 191 | 0.0 | 1.6 | 0.00 | 0.00 | 0.00 | 96 | 1011.9 |
| 20260905101344 | 22 | 191 | 0.0 | 3.2 | 0.00 | 0.00 | 0.00 | 96 | 1011.7 |
| 20260905100839 | 22 | 164 | 0.0 | 0.0 | 0.00 | 0.00 | 0.00 | 96 | 1011.8 |
| 20260905100335 | 22 | 164 | 0.0 | 0.0 | 0.00 | 0.00 | 0.00 | 96 | 1011.9 |
| 20260905095835 | 22 | 164 | 0.0 | 0.0 | 0.00 | 0.00 | 0.00 | 96 | 1011.7 |
| 20260905095334 | 22 | 164 | 0.0 | 0.0 | 0.00 | 0.00 | 0.00 | 96 | 1011.8 |
| 20260905094829 | 22 | 164 | 0.0 | 0.0 | 0.00 | 0.00 | 0.00 | 96 | 1011.9 |
| 20260905094325 | 22 | 164 | 0.0 | 1.6 | 0.00 | 0.00 | 0.00 | 96 | 1011.9 |
| 20260905093824 | 22 | 164 | 0.0 | 0.0 | 0.00 | 0.00 | 0.00 | 96 | 1011.8 |
| 20260905093320 | 22 | 165 | 1.6 | 1.6 | 0.00 | 0.00 | 0.00 | 96 | 1011.8 |